Location: Newark
(47.4000°N, 7.5833°E)
Time: 20:22:23
(UTC+00:00)

N. Korean satellite - Pass Details

Date: 06 February 2020
Orbit: 456 x 505 km, 97.2° (Epoch: 23 February)

Event Time Altitude Azimuth Distance (km) Brightness Sun altitude
Rises 05:15:46 0° 14° (NNE) 2,583 10.4 -16.2°
Reaches altitude 10° 05:17:51 10° 16° (NNE) 1,703 9.4 -15.9°
Maximum altitude 05:21:30 72° 101° (E) 531 6.9 -15.3°
Drops below altitude 10° 05:25:11 10° 187° (S) 1,708 9.3 -14.6°
Sets 05:27:16 0° 189° (S) 2,590 10.3 -14.3°
